H1 CPF 2 NER 2021 5 4 9 124 01 glonass105 H2 0705202 9105 32276 2021 5 4 0 0 0 2021 5 7 23 45 0 900 1 1 0 0 0 1 H9 10 0 59338 0.00000 0 -23693191.661 8282725.637 4409938.281 10 0 59338 900.00000 0 -22931495.414 8159744.337 7553303.219 10 0 59338 1800.00000 0 -21853449.818 7791800.966 10549536.941 10 0 59338 2700.00000 0 -20509893.537 7146284.585 13340327.029 10 0 59338 3600.00000 0 -18959248.289 6201986.631 15871404.858 10 0 59338 4500.00000 0 -17265045.112 4950248.873 18093604.567 10 0 59338 5400.00000 0 -15493257.968 3395581.439 19963817.781 10 0 59338 6300.00000 0 -13709557.770 1555724.472 21445825.691 10 0 59338 7200.00000 0 -11976602.783 -538849.029 22510992.903 10 0 59338 8100.00000 0 -10351479.035 -2845968.150 23138810.618 10 0 59338 9000.00000 0 -8883397.317 -5313293.304 23317279.872 10 0 59338 9900.00000 0 -7611742.079 -7880275.715 23043128.749 10 0 59338 10800.00000 0 -6564552.120 -10480465.560 22321860.726 10 0 59338 11700.00000 0 -5757494.647 -13044073.023 21167634.394 10 0 59338 12600.00000 0 -5193373.507 -15500676.286 19602977.869 10 0 59338 13500.00000 0 -4862190.009 -17781964.783 17658344.060 10 0 59338 14400.00000 0 -4741751.890 -19824404.828 15371515.764 10 0 59338 15300.00000 0 -4798803.282 -21571718.024 12786872.136 10 0 59338 16200.00000 0 -4990627.080 -22977070.689 9954530.542 10 0 59338 17100.00000 0 -5267051.586 -24004884.541 6929379.936 10 0 59338 18000.00000 0 -5572776.755 -24632194.331 3770023.981 10 0 59338 18900.00000 0 -5849922.039 -24849496.871 537653.740 10 0 59338 19800.00000 0 -6040688.765 -24661056.753 -2705128.959 10 0 59338 20700.00000 0 -6090025.141 -24084656.497 -5895515.218 10 0 59338 21600.00000 0 -5948181.842 -23150801.763 -8971697.214 10 0 59338 22500.00000 0 -5573050.578 -21901414.695 -11874057.975 10 0 59338 23400.00000 0 -4932186.963 -20388069.791 -14546320.228 10 0 59338 24300.00000 0 -4004431.991 -18669845.359 -16936632.578 10 0 59338 25200.00000 0 -2781062.910 -16810879.672 -18998572.415 10 0 59338 26100.00000 0 -1266423.731 -14877733.246 -20692046.441 10 0 59338 27000.00000 0 521992.910 -12936666.647 -21984071.589 10 0 59338 27900.00000 0 2554018.188 -11050946.811 -22849421.248 10 0 59338 28800.00000 0 4787816.448 -9278293.811 -23271124.032 10 0 59338 29700.00000 0 7171391.805 -7668574.374 -23240805.019 10 0 59338 30600.00000 0 9644531.514 -6261838.368 -22758862.112 10 0 59338 31500.00000 0 12141107.081 -5086780.509 -21834473.141 10 0 59338 32400.00000 0 14591638.859 -4159691.887 -20485432.424 10 0 59338 33300.00000 0 16926018.342 -3483945.657 -18737818.661 10 0 59338 34200.00000 0 19076275.044 -3050038.935 -16625499.393 10 0 59338 35100.00000 0 20979272.436 -2836189.445 -14189480.536 10 0 59338 36000.00000 0 22579219.712 -2809461.916 -11477112.737 10 0 59338 36900.00000 0 23829893.315 -2927376.600 -8541169.589 10 0 59338 37800.00000 0 24696474.058 -3139931.360 -5438815.600 10 0 59338 38700.00000 0 25156921.695 -3391950.889 -2230484.418 10 0 59338 39600.00000 0 25202828.265 -3625662.239 1021309.870 10 0 59338 40500.00000 0 24839713.883 -3783385.910 4253203.959 10 0 59338 41400.00000 0 24086752.461 -3810226.590 7402233.653 10 0 59338 42300.00000 0 22975939.399 -3656647.708 10407073.305 10 0 59338 43200.00000 0 21550737.210 -3280818.957 13209240.815 10 0 59338 44100.00000 0 19864257.348 -2650635.985 15754243.550 10 0 59338 45000.00000 0 17977056.189 -1745325.734 17992641.953 10 0 59338 45900.00000 0 15954639.194 -556568.960 19881009.883 10 0 59338 46800.00000 0 13864779.217 910907.743 21382773.129 10 0 59338 47700.00000 0 11774762.206 2639295.310 22468910.386 10 0 59338 48600.00000 0 9748675.912 4598222.313 23118504.090 10 0 59338 49500.00000 0 7844854.603 6745809.786 23319131.692 10 0 59338 50400.00000 0 6113585.706 9030216.351 23067091.097 10 0 59338 51300.00000 0 4595172.597 11391609.059 22367457.314 10 0 59338 52200.00000 0 3318432.481 13764477.917 21233970.404 10 0 59338 53100.00000 0 2299689.908 16080197.988 19688757.861 10 0 59338 54000.00000 0 1542305.651 18269733.099 17761897.512 10 0 59338 54900.00000 0 1036758.368 20266369.505 15490829.702 10 0 59338 55800.00000 0 761273.697 22008366.704 12919630.233 10 0 59338 56700.00000 0 682972.733 23441416.188 10098157.928 10 0 59338 57600.00000 0 759490.464 24520806.847 7081092.851 10 0 59338 58500.00000 0 940995.421 25213207.709 3926883.339 10 0 59338 59400.00000 0 1172525.176 25497994.570 696621.584 10 0 59338 60300.00000 0 1396539.309 25368065.758 -2547131.151 10 0 59338 61200.00000 0 1555582.461 24830113.290 -5741547.491 10 0 59338 62100.00000 0 1594945.462 23904338.204 -8824742.419 10 0 59338 63000.00000 0 1465212.551 22623621.772 -11736964.507 10 0 59338 63900.00000 0 1124587.394 21032186.721 -14421747.258 10 0 59338 64800.00000 0 540899.662 19183803.634 -16826998.818 10 0 59338 65700.00000 0 -306792.994 17139616.631 -18906009.392 10 0 59338 66600.00000 0 -1427075.945 14965678.107 -20618357.141 10 0 59338 67500.00000 0 -2815570.527 12730294.417 -21930695.281 10 0 59338 68400.00000 0 -4454876.315 10501292.236 -22817405.134 10 0 59338 69300.00000 0 -6315067.320 8343318.808 -23261102.311 10 0 59338 70200.00000 0 -8354723.772 6315288.037 -23252985.785 10 0 59338 71100.00000 0 -10522458.752 4468078.473 -22793022.402 10 0 59338 72000.00000 0 -12758878.103 2842579.186 -21889962.295 10 0 59338 72900.00000 0 -14998893.648 1468165.135 -20561183.781 10 0 59338 73800.00000 0 -17174294.565 361665.962 -18832369.450 10 0 59338 74700.00000 0 -19216470.214 -473128.248 -16737018.541 10 0 59338 75600.00000 0 -21059170.875 -1045403.332 -14315803.894 10 0 59338 76500.00000 0 -22641190.470 -1376702.131 -11615785.097 10 0 59338 77400.00000 0 -23908857.999 -1499776.468 -8689492.684 10 0 59338 78300.00000 0 -24818232.062 -1456958.997 -5593901.103 10 0 59338 79200.00000 0 -25336905.010 -1298124.621 -2389310.872 10 0 59338 80100.00000 0 -25445339.647 -1078328.945 861837.391 10 0 59338 81000.00000 0 -25137681.335 -855225.436 4096192.710 10 0 59338 81900.00000 0 -24422010.748 -686372.499 7250741.875 10 0 59338 82800.00000 0 -23320026.632 -626546.538 10264049.970 10 0 59338 83700.00000 0 -21866172.342 -725176.633 13077467.677 10 0 59338 84600.00000 0 -20106243.792 -1024011.088 15636280.683 10 0 59338 85500.00000 0 -18095538.551 -1555115.800 17890777.864 10 0 59339 0.00000 0 -15896625.056 -2339289.793 19797217.120 10 0 59339 900.00000 0 -13576826.604 -3384965.694 21318670.399 10 0 59339 1800.00000 0 -11205526.555 -4687640.126 22425731.576 10 0 59339 2700.00000 0 -8851407.981 -6229859.985 23097075.016 10 0 59339 3600.00000 0 -6579742.526 -7981762.612 23319854.862 10 0 59339 4500.00000 0 -4449841.476 -9902148.232 23089938.732 10 0 59339 5400.00000 0 -2512773.733 -11940038.937 22411972.706 10 0 59339 6300.00000 0 -809444.111 -14036659.168 21299277.519 10 0 59339 7200.00000 0 630890.029 -16127755.084 19773578.965 10 0 59339 8100.00000 0 1791604.310 -18146156.516 17864578.431 10 0 59339 9000.00000 0 2669156.322 -20024475.341 15609372.203 10 0 59339 9900.00000 0 3272981.458 -21697828.545 13051730.895 10 0 59339 10800.00000 0 3624842.029 -23106473.396 10241252.740 10 0 59339 11700.00000 0 3757658.482 -24198245.756 7232406.703 10 0 59339 12600.00000 0 3713872.955 -24930700.635 4083483.459 10 0 59339 13500.00000 0 3543414.661 -25272866.361 855473.912 10 0 59339 14400.00000 0 3301353.053 -25206539.618 -2389103.717 10 0 59339 15300.00000 0 3045337.597 -24727067.460 -5587406.069 10 0 59339 16200.00000 0 2832931.896 -23843583.611 -8677473.456 10 0 59339 17100.00000 0 2718954.254 -22578688.827 -11599422.519 10 0 59339 18000.00000 0 2752936.618 -20967588.050 -14296600.050 10 0 59339 18900.00000 0 2976808.950 -19056719.592 -16716676.203 10 0 59339 19800.00000 0 3422906.873 -16901932.407 -18812656.357 10 0 59339 20700.00000 0 4112387.070 -14566286.424 -20543792.308 10 0 59339 21600.00000 0 5054118.188 -12117566.406 -21876375.449 10 0 59339 22500.00000 0 6244095.323 -9625611.675 -22784396.614 10 0 59339 23400.00000 0 7665404.502 -7159571.900 -23250059.599 10 0 59339 24300.00000 0 9288740.824 -4785202.288 -23264138.051 10 0 59339 25200.00000 0 11073460.846 -2562310.113 -22826168.115 10 0 59339 26100.00000 0 12969127.352 -542458.629 -21944472.169 10 0 59339 27000.00000 0 14917483.906 1232976.112 -20636012.051 10 0 59339 27900.00000 0 16854778.202 2734314.392 -18926073.363 10 0 59339 28800.00000 0 18714337.998 3944584.594 -16847785.714 10 0 59339 29700.00000 0 20429292.283 4859995.073 -14441487.107 10 0 59339 30600.00000 0 21935323.490 5489846.257 -11753943.850 10 0 59339 31500.00000 0 23173334.568 5855886.714 -8837440.743 10 0 59339 32400.00000 0 24091917.796 5991140.771 -5748759.106 10 0 59339 33300.00000 0 24649520.184 5938257.947 -2548062.930 10 0 59339 34200.00000 0 24816212.883 5747455.079 702284.236 10 0 59339 35100.00000 0 24574988.826 5474139.775 3938947.430 10 0 59339 36000.00000 0 23922532.956 5176317.599 7098868.058 10 0 59339 36900.00000 0 22869432.069 4911894.719 10120505.367 10 0 59339 37800.00000 0 21439815.369 4735992.188 12945045.976 10 0 59339 38700.00000 0 19670441.283 4698387.292 15517556.693 10 0 59339 39600.00000 0 17609269.698 4841191.588 17788057.232 10 0 59339 40500.00000 0 15313580.622 5196864.764 19712491.594 10 0 59339 41400.00000 0 12847719.116 5786648.695 21253579.337 10 0 59339 42300.00000 0 10280561.886 6619487.768 22381530.703 10 0 59339 43200.00000 0 7682811.938 7691480.680 23074612.705 10 0 59339 44100.00000 0 5124234.302 8985886.255 23319556.425 10 0 59339 45000.00000 0 2670947.680 10473682.444 23111798.955 10 0 59339 45900.00000 0 382883.775 12114654.537 22455556.705 10 0 59339 46800.00000 0 -1688481.471 13858966.665 21363729.845 10 0 59339 47700.00000 0 -3502032.203 15649150.695 19857640.755 10 0 59339 48600.00000 0 -5028475.515 17422429.516 17966612.234 10 0 59339 49500.00000 0 -6251304.297 19113278.055 15727394.008 10 0 59339 50400.00000 0 -7167222.211 20656115.615 13183448.728 10 0 59339 51300.00000 0 -7786015.216 21988017.825 10384111.088 10 0 59339 52200.00000 0 -8129876.922 23051335.702 7383635.901 10 0 59339 53100.00000 0 -8232217.459 23796113.098 4240153.097 10 0 59339 54000.00000 0 -8136006.936 24182202.113 1014549.239 10 0 59339 54900.00000 0 -7891723.717 24180988.464 -2230703.461 10 0 59339 55800.00000 0 -7554994.063 23776654.789 -5432748.495 10 0 59339 56700.00000 0 -7184022.516 22966928.977 -8529554.156 10 0 59339 57600.00000 0 -6836921.037 21763285.772 -11461107.556 10 0 59339 58500.00000 0 -6569049.178 20190592.529 -14170570.912 10 0 59339 59400.00000 0 -6430477.149 18286212.917 -16605378.207 10 0 59339 60300.00000 0 -6463678.611 16098604.738 -18718251.504 10 0 59339 61200.00000 0 -6701550.604 13685468.975 -20468117.461 10 0 59339 62100.00000 0 -7165844.516 11111525.772 -21820906.614 10 0 59339 63000.00000 0 -7866075.131 8446008.397 -22750220.005 10 0 59339 63900.00000 0 -8798954.947 5759978.255 -23237850.052 10 0 59339 64800.00000 0 -9948379.282 3123571.386 -23274145.232 10 0 59339 65700.00000 0 -11285964.801 603290.018 -22858210.826 10 0 59339 66600.00000 0 -12772120.891 -1740548.686 -21997940.920 10 0 59339 67500.00000 0 -14357610.981 -3856100.897 -20709879.940 10 0 59339 68400.00000 0 -15985540.061 -5701926.149 -19018915.144 10 0 59339 69300.00000 0 -17593686.306 -7248478.411 -16957804.767 10 0 59339 70200.00000 0 -19117079.728 -8479095.715 -14566549.870 10 0 59339 71100.00000 0 -20490719.727 -9390446.756 -11891621.095 10 0 59339 72000.00000 0 -21652316.835 -9992415.617 -8985054.916 10 0 59339 72900.00000 0 -22544942.376 -10307429.784 -5903436.798 10 0 59339 73800.00000 0 -23119473.114 -10369260.360 -2706791.398 10 0 59339 74700.00000 0 -23336726.350 -10221346.062 542597.650 10 0 59339 75600.00000 0 -23169193.932 -9914713.270 3781414.240 10 0 59339 76500.00000 0 -22602300.728 -9505581.777 6946557.212 10 0 59339 77400.00000 0 -21635133.533 -9052759.462 9976382.743 10 0 59339 78300.00000 0 -20280609.173 -8614938.151 12811916.052 10 0 59339 79200.00000 0 -18565074.650 -8248006.867 15398007.561 10 0 59339 80100.00000 0 -16527356.545 -8002497.677 17684410.064 10 0 59339 81000.00000 0 -14217300.286 -7921273.163 19626755.559 10 0 59339 81900.00000 0 -11693861.281 -8037553.797 21187412.817 10 0 59339 82800.00000 0 -9022828.728 -8373368.501 22336209.540 10 0 59339 83700.00000 0 -6274277.741 -8938493.374 23051006.046 10 0 59339 84600.00000 0 -3519856.295 -9729922.593 23318110.580 10 0 59339 85500.00000 0 -830019.880 -10731892.891 23132529.522 10 0 59340 0.00000 0 1728671.850 -11916459.713 22498049.081 10 0 59340 900.00000 0 4096085.225 -13244600.433 21427147.936 10 0 59340 1800.00000 0 6220766.266 -14667797.185 19940743.903 10 0 59340 2700.00000 0 8061825.403 -16130033.799 18067779.753 10 0 59340 3600.00000 0 9590378.365 -17570122.455 15844656.965 10 0 59340 4500.00000 0 10790484.337 -18924263.428 13314528.288 10 0 59340 5400.00000 0 11659545.075 -20128731.203 10526462.697 10 0 59340 6300.00000 0 12208150.167 -21122575.168 7534498.453 10 0 59340 7200.00000 0 12459376.541 -21850222.492 4396602.164 10 0 59340 8100.00000 0 12447572.908 -22263874.741 1173553.350 10 0 59340 9000.00000 0 12216681.000 -22325598.315 -2072224.550 10 0 59340 9900.00000 0 11818164.583 -22009021.268 -5277864.632 10 0 59340 10800.00000 0 11308633.500 -21300565.375 -8381265.859 10 0 59340 11700.00000 0 10747262.572 -20200161.361 -11322288.417 10 0 59340 12600.00000 0 10193113.760 -18721416.621 -14043912.412 10 0 59340 13500.00000 0 9702473.987 -16891227.319 -16493337.993 10 0 59340 14400.00000 0 9326320.466 -14748849.653 -18623006.049 10 0 59340 15300.00000 0 9108020.129 -12344467.530 -20391520.008 10 0 59340 16200.00000 0 9081360.147 -9737314.631 -21764451.173 10 0 59340 17100.00000 0 9268992.912 -6993427.308 -22715012.090 10 0 59340 18000.00000 0 9681361.713 -4183120.221 -23224584.733 10 0 59340 18900.00000 0 10316153.530 -1378288.162 -23283092.961 10 0 59340 19800.00000 0 11158303.462 1350355.033 -22889211.344 10 0 59340 20700.00000 0 12180552.346 3935986.545 -22050405.457 10 0 59340 21600.00000 0 13344535.930 6318221.500 -20782801.727 10 0 59340 22500.00000 0 14602361.512 8445391.022 -19110888.107 10 0 59340 23400.00000 0 15898607.146 10276456.333 -17067050.133 10 0 59340 24300.00000 0 17172660.295 11782478.854 -14690950.210 10 0 59340 25200.00000 0 18361297.900 12947584.525 -12028761.218 10 0 59340 26100.00000 0 19401399.020 13769381.729 -9132268.817 10 0 59340 27000.00000 0 20232674.956 14258815.294 -6057859.769 10 0 59340 27900.00000 0 20800300.520 14439463.106 -2865416.267 10 0 59340 28800.00000 0 21057333.853 14346305.663 382861.315 10 0 59340 29700.00000 0 20966821.043 14024021.699 3623679.161 10 0 59340 30600.00000 0 20503495.072 13524883.426 6793896.953 10 0 59340 31500.00000 0 19654996.107 12906342.146 9831771.074 10 0 59340 32400.00000 0 18422560.706 12228408.292 12678168.379 10 0 59340 33300.00000 0 16821150.368 11550938.546 15277725.657 10 0 59340 34200.00000 0 14879013.993 10930946.351 17579931.213 10 0 59340 35100.00000 0 12636702.947 10420050.676 19540107.113 10 0 59340 36000.00000 0 10145580.541 10062171.459 21120273.058 10 0 59340 36900.00000 0 7465889.052 9891569.126 22289875.538 10 0 59340 37800.00000 0 4664455.587 9931310.434 23026369.102 10 0 59340 38700.00000 0 1812132.747 10192224.484 23315639.641 10 0 59340 39600.00000 0 -1018919.244 10672391.746 23152262.841 10 0 59340 40500.00000 0 -3757996.465 11357186.404 22539594.162 10 0 59340 41400.00000 0 -6338547.364 12219869.149 21489689.861 10 0 59340 42300.00000 0 -8700690.287 13222704.559 20023061.593 10 0 59340 43200.00000 0 -10793449.694 14318555.597 18168270.084 10 0 59340 44100.00000 0 -12576620.149 15452887.983 15961366.109 10 0 59340 45000.00000 0 -14022182.630 16566100.412 13445189.741 10 0 59340 45900.00000 0 -15115216.321 17596083.139 10668541.236 10 0 59340 46800.00000 0 -15854269.874 18480898.133 7685239.197 10 0 59340 47700.00000 0 -16251178.320 19161468.874 4553083.774 10 0 59340 48600.00000 0 -16330334.714 19584167.514 1332744.361 10 0 59340 49500.00000 0 -16127448.061 19703191.273 -1913407.360 10 0 59340 50400.00000 0 -15687840.239 19482628.555 -5122496.953 10 0 59340 51300.00000 0 -15064353.751 18898128.083 -8232356.737 10 0 59340 52200.00000 0 -14314958.184 17938100.622 -11182722.465 10 0 59340 53100.00000 0 -13500155.788 16604402.235 -13916394.378 10 0 59340 54000.00000 0 -12680294.906 14912469.336 -16380340.747 10 0 59340 54900.00000 0 -11912903.838 12890898.444 -18526722.942 10 0 59340 55800.00000 0 -11250156.934 10580486.520 -20313822.492 10 0 59340 56700.00000 0 -10736579.289 8032770.040 -21706852.485 10 0 59340 57600.00000 0 -10407086.612 5308121.636 -22678637.680 10 0 59340 58500.00000 0 -10285443.054 2473481.699 -23210150.014 10 0 59340 59400.00000 0 -10383202.511 -400182.579 -23290888.820 10 0 59340 60300.00000 0 -10699178.956 -3240586.660 -22919097.743 10 0 59340 61200.00000 0 -11219469.325 -5976895.149 -22101813.284 10 0 59340 62100.00000 0 -11918029.453 -8542431.140 -20854742.943 10 0 59340 63000.00000 0 -12757780.271 -10877216.218 -19201974.079 10 0 59340 63900.00000 0 -13692198.998 -12930235.266 -17175517.881 10 0 59340 64800.00000 0 -14667329.292 -14661331.492 -14814696.143 10 0 59340 65700.00000 0 -15624126.181 -16042652.150 -12165381.754 10 0 59340 66600.00000 0 -16501036.854 -17059583.981 -9279107.148 10 0 59340 67500.00000 0 -17236707.842 -17711138.953 -6212057.832 10 0 59340 68400.00000 0 -17772703.166 -18009774.110 -3023970.894 10 0 59340 69300.00000 0 -18056117.160 -17980653.520 223039.235 10 0 59340 70200.00000 0 -18041969.824 -17660384.258 3465703.738 10 0 59340 71100.00000 0 -17695281.766 -17095281.064 6640845.862 10 0 59340 72000.00000 0 -16992739.461 -16339234.546 9686624.892 10 0 59340 72900.00000 0 -15923879.258 -15451274.837 12543751.966 10 0 59340 73800.00000 0 -14491739.271 -14492935.491 15156652.769 10 0 59340 74700.00000 0 -12712951.293 -13525530.669 17474553.447 10 0 59340 75600.00000 0 -10617268.784 -12607461.939 19452468.213 10 0 59340 76500.00000 0 -8246551.008 -11791669.164 21052069.428 10 0 59340 77400.00000 0 -5653246.333 -11123333.249 22242423.731 10 0 59340 78300.00000 0 -2898438.560 -10637927.227 23000580.841 10 0 59340 79200.00000 0 -49538.096 -10359696.879 23312004.833 10 0 59340 80100.00000 0 2822285.725 -10300633.611 23170840.816 10 0 59340 81000.00000 0 5644824.650 -10459981.283 22580013.284 10 0 59340 81900.00000 0 8347591.596 -10824296.228 21551155.443 10 0 59340 82800.00000 0 10864507.164 -11368056.541 20104371.914 10 0 59340 83700.00000 0 13136402.548 -12054793.928 18267840.174 10 0 59340 84600.00000 0 15113236.631 -12838699.775 16077258.803 10 0 59340 85500.00000 0 16755936.932 -13666637.560 13575153.401 10 0 59341 0.00000 0 18037789.841 -14480477.023 10810053.465 10 0 59341 900.00000 0 18945323.900 -15219652.118 7835555.391 10 0 59341 1800.00000 0 19478651.548 -15823836.051 4709290.234 10 0 59341 2700.00000 0 19651255.318 -16235620.650 1491814.336 10 0 59341 3600.00000 0 19489229.943 -16403088.874 -1754555.447 10 0 59341 4500.00000 0 19030011.720 -16282171.853 -4966940.248 10 0 59341 5400.00000 0 18320649.376 -15838691.855 -8083108.799 10 0 59341 6300.00000 0 17415688.833 -15050004.974 -11042675.321 10 0 59341 7200.00000 0 16374760.544 -13906173.987 -13788262.909 10 0 59341 8100.00000 0 15259970.302 -12410621.201 -16266610.435 10 0 59341 9000.00000 0 14133202.616 -10580232.477 -18429601.969 10 0 59341 9900.00000 0 13053449.401 -8444906.449 -20235199.082 10 0 59341 10800.00000 0 12074275.743 -6046565.710 -21648258.272 10 0 59341 11700.00000 0 11241528.870 -3437669.079 -22641217.811 10 0 59341 12600.00000 0 10591386.507 -679284.802 -23194640.537 10 0 59341 13500.00000 0 10148826.830 2161197.228 -23297601.823 10 0 59341 14400.00000 0 9926584.775 5012620.961 -22947914.567 10 0 59341 15300.00000 0 9924639.422 7802782.614 -22152185.994 10 0 59341 16200.00000 0 10130254.967 10461200.131 -20925704.101 10 0 59341 17100.00000 0 10518574.684 12921819.194 -19292154.703 10 0 59341 18000.00000 0 11053743.936 15125543.225 -17283173.324 10 0 59341 18900.00000 0 11690515.776 17022481.806 -14937739.445 10 0 59341 19800.00000 0 12376271.966 18573823.231 -12301423.889 10 0 59341 20700.00000 0 13053374.176 19753252.212 -9425503.399 10 0 59341 21600.00000 0 13661745.603 20547852.890 -6365959.424 10 0 59341 22500.00000 0 14141572.965 20958458.925 -3182380.841 10 0 59341 23400.00000 0 14436013.187 20999435.913 63207.183 10 0 59341 24300.00000 0 14493788.619 20697905.791 3307564.271 10 0 59341 25200.00000 0 14271559.187 20092446.833 6487480.663 10 0 59341 26100.00000 0 13735969.396 19231325.362 9541021.867 10 0 59341 27000.00000 0 12865282.138 18170335.483 12408746.415 10 0 59341 27900.00000 0 11650529.087 16970339.737 15034871.723 10 0 59341 28800.00000 0 10096128.445 15694616.196 17368364.313 10 0 59341 29700.00000 0 8219943.592 14406125.349 19363932.727 10 0 59341 30600.00000 0 6052780.158 13164812.963 20982903.819 10 0 59341 31500.00000 0 3637342.873 12025063.040 22193965.828 10 0 59341 32400.00000 0 1026696.140 11033407.861 22973764.698 10 0 59341 33300.00000 0 -1717707.085 10226590.688 23307343.295 10 0 59341 34200.00000 0 -4528345.738 9630061.268 23188416.298 10 0 59341 35100.00000 0 -7334204.013 9256965.729 22619476.864 10 0 59341 36000.00000 0 -10063491.140 9107671.459 21611734.235 10 0 59341 36900.00000 0 -12646395.376 9169845.118 20184884.547 10 0 59341 37800.00000 0 -15017759.040 9419078.895 18366720.048 10 0 59341 38700.00000 0 -17119564.961 9820037.355 16192584.679 10 0 59341 39600.00000 0 -18903132.584 10328075.775 13704686.737 10 0 59341 40500.00000 0 -20330934.165 10891261.408 10951281.721 10 0 59341 41400.00000 0 -21377957.130 11452712.494 7985740.814 10 0 59341 42300.00000 0 -22032557.311 11953156.797 4865522.550 10 0 59341 43200.00000 0 -22296768.817 12333602.263 1651066.953 10 0 59341 44100.00000 0 -22186058.635 12538007.837 -1595367.096 10 0 59341 45000.00000 0 -21728536.928 12515842.302 -4810899.300 10 0 59341 45900.00000 0 -20963656.512 12224423.661 -7933237.634 10 0 59341 46800.00000 0 -19940456.090 11630940.508 -10901877.409 10 0 59341 47700.00000 0 -18715420.704 10714069.988 -13659266.957 10 0 59341 48600.00000 0 -17350048.718 9465123.572 -16151917.851 10 0 59341 49500.00000 0 -15908226.789 7888671.285 -18331438.632 10 0 59341 50400.00000 0 -14453522.295 6002616.666 -20155472.312 10 0 59341 51300.00000 0 -13046506.106 3837717.343 -21588519.814 10 0 59341 52200.00000 0 -11742217.400 1436569.007 -22602633.529 10 0 59341 53100.00000 0 -10587876.461 -1147907.054 -23177967.410 10 0 59341 54000.00000 0 -9620941.209 -3854412.198 -23303172.702 10 0 59341 54900.00000 0 -8867589.066 -6615575.466 -22975631.023 10 0 59341 55800.00000 0 -8341688.259 -9360521.279 -22201519.440 10 0 59341 56700.00000 0 -8044302.331 -12017594.397 -20995705.229 10 0 59341 57600.00000 0 -7963749.430 -14517129.708 -19381471.140 10 0 59341 58500.00000 0 -8076214.634 -16794151.833 -17390075.219 10 0 59341 59400.00000 0 -8346890.219 -18790892.000 -15060152.602 10 0 59341 60300.00000 0 -8731596.211 -20459016.688 -12436969.824 10 0 59341 61200.00000 0 -9178812.892 -21761474.115 -9571545.606 10 0 59341 62100.00000 0 -9632039.035 -22673880.508 -6519654.933 10 0 59341 63000.00000 0 -10032375.260 -23185387.338 -3340736.049 10 0 59341 63900.00000 0 -10321221.952 -23298992.656 -96722.436 10 0 59341 64800.00000 0 -10442975.865 -23031283.443 3149176.373 10 0 59341 65700.00000 0 -10347609.439 -22411620.312 6333720.008 10 0 59341 66600.00000 0 -9993021.775 -21480799.827 9394882.577 10 0 59341 67500.00000 0 -9347060.125 -20289252.210 12273072.351 10 0 59341 68400.00000 0 -8389124.983 -18894851.965 14912300.753 10 0 59341 69300.00000 0 -7111290.007 -17360435.409 17261276.821 10 0 59341 70200.00000 0 -5518888.896 -15751131.179 19274405.383 10 0 59341 71100.00000 0 -3630544.259 -14131617.237 20912669.500 10 0 59341 72000.00000 0 -1477637.320 -12563420.459 22144380.416 10 0 59341 72900.00000 0 896759.121 -11102372.351 22945781.377 10 0 59341 73800.00000 0 3439439.627 -9796327.087 23301494.771 10 0 59341 74700.00000 0 6089051.644 -8683236.566 23204805.226 10 0 59341 75600.00000 0 8778424.926 -7789661.495 22657774.606 10 0 59341 76500.00000 0 11437148.253 -7129779.007 21671187.920 10 0 59341 77400.00000 0 13994286.811 -6704926.344 20264332.245 10 0 59341 78300.00000 0 16381128.281 -6503697.685 18464613.732 10 0 59341 79200.00000 0 18533844.709 -6502588.256 16307020.519 10 0 59341 80100.00000 0 20395960.813 -6667157.208 13833442.112 10 0 59341 81000.00000 0 21920527.557 -6953659.349 11091858.271 10 0 59341 81900.00000 0 23071912.015 -7311076.474 8135412.680 10 0 59341 82800.00000 0 23827130.224 -7683462.583 5021388.914 10 0 59341 83700.00000 0 24176668.678 -8012504.303 1810107.892 10 0 59341 84600.00000 0 24124761.088 -8240188.908 -1436232.511 10 0 59341 85500.00000 0 23689109.474 -8311467.844 -4654753.726 99